[[{"header":{"parameterUnit":"m.s-1","parameterCategory":1,"la1":30.2992,"la2":30.254,"lo1":-89.0895,"lo2":-89.0443,"dy":0.0025,"dx":0.0025,"nx":19,"ny":19,"refTime":"2026-03-08T03:00:00:Z","depth":0,"parameterNumber":2,"parameterNumberName":"U-component_of_WINDS"},"data":[0,0,0,-3.8409,-3.8409,-3.8407,-3.8407,-3.8415,-3.8415,0,0,0,0,0,0,0,0,0,0,0,-3.8416,-3.8416,-3.8409,-3.8409,-3.8407,-3.8407,-3.8415,-3.8415,0,0,0,0,0,0,0,0,0,0,0,-3.8416,-3.8416,-3.8416,-3.8409,-3.8407,-3.8407,-3.8415,-3.8413,0,0,0,0,0,0,0,0,0,0,-3.8413,-3.8425,-3.8416,-3.8416,-3.8409,-3.8407,-3.8407,-3.8412,-3.8413,-3.842,0,-3.8428,0,-3.8422,-3.8416,-3.8416,0,0,0,-3.8405,-3.8424,-3.8419,-3.8416,-3.8409,-3.8408,-3.8407,-3.8413,-3.8413,-3.8421,-3.8428,-3.8428,-3.8422,-3.8416,-3.8416,-3.8474,-3.8475,0,0,-3.8405,-3.8418,-3.8418,-3.8419,-3.842,-3.8407,-3.8407,-3.8413,-3.8422,-3.8428,-3.8428,-3.8422,-3.8416,-3.8417,-3.8474,-3.8474,0,0,0,-3.8408,-3.8419,-3.8413,-3.8419,-3.8418,-3.8407,-3.8407,-3.8421,-3.8418,-3.8428,-3.8422,-3.8417,-3.8417,-3.8473,-3.8474,-3.851,0,0,0,-3.8408,-3.8421,-3.8413,-3.8421,-3.8418,-3.842,-3.8416,-3.8418,-3.8418,-3.8422,-3.8417,-3.8417,-3.8473,-3.8474,-3.8508,-3.8524,0,0,0,-3.8414,-3.8421,-3.8423,-3.8422,-3.8422,-3.8419,-3.8416,-3.8417,-3.8415,-3.8416,-3.8417,-3.8472,-3.8473,-3.8506,-3.8521,-3.8542,0,0,0,-3.8424,-3.8455,-3.8424,-3.8457,-3.8422,-3.8443,-3.8416,-3.8431,-3.8437,-3.8417,-3.8473,-3.8474,-3.8505,-3.8519,-3.854,-3.856,-3.8571,0,0,-3.8471,-3.8461,-3.848,-3.8452,-3.8481,-3.8442,-3.8477,-3.8469,-3.8457,-3.8469,-3.847,-3.8508,-3.852,-3.8541,-3.863,-3.8638,0,0,0,-3.8499,-3.8513,-3.8518,-3.8524,-3.852,-3.8517,-3.8503,-3.8501,-3.8511,-3.8466,-3.8523,-3.8529,-3.8541,-3.855,-3.8557,-3.8566,-3.8479,-3.8479,-3.8479,-3.8583,-3.8567,-3.8597,-3.8581,-3.8588,-3.8574,-3.8578,-3.8572,-3.8553,-3.8567,-3.8569,-3.8625,-3.8636,-3.8642,-3.8651,-3.8581,-3.8582,-3.8582,-3.8582,-3.8649,-3.8665,-3.8641,-3.866,-3.8644,-3.866,-3.8649,-3.8635,-3.8648,-3.8622,-3.8631,-3.8601,-3.8651,-3.8658,-3.8584,-3.8584,-3.8584,-3.8583,-3.8583,-3.87,-3.8705,-3.8702,-3.8711,-3.872,-3.8703,-3.8717,-3.8701,-3.8687,-3.8697,-3.8697,-3.8696,-3.8692,-3.8699,-3.8699,-3.8699,-3.8699,-3.8699,-3.8699,-3.8753,-3.8749,-3.8762,-3.8762,-3.8765,-3.8767,-3.8755,-3.8757,-3.8756,-3.8743,-3.8743,-3.8722,-3.866,-3.8644,-3.8702,-3.8702,-3.8701,-3.8701,-3.8701,-3.882,-3.8803,-3.8823,-3.8826,-3.8826,-3.8835,-3.8817,-3.8823,-3.8823,-3.883,-3.8809,-3.8766,-3.8755,-3.8749,-3.8735,-3.8813,-3.8813,-3.8813,-3.8813,-3.8861,-3.8856,-3.8873,-3.8879,-3.8883,-3.8869,-3.8892,-3.8885,-3.8874,-3.8873,-3.886,-3.8841,-3.8836,-3.8828,-3.882,-3.8806,-3.8902,-3.8902,-3.8902,-3.8901,-3.8896,-3.8918,-3.8908,-3.8907,-3.8906,-3.8927,-3.8935,-3.892,-3.8905,-3.8872,-3.8868,-3.8837,-3.8828,-3.8809,-3.8798,-3.8772,0,0]},{"header":{"parameterUnit":"m.s-1","parameterCategory":1,"la1":30.2992,"la2":30.254,"lo1":-89.0895,"lo2":-89.0443,"dy":0.0025,"dx":0.0025,"nx":19,"ny":19,"refTime":"2026-03-08T03:00:00:Z","depth":0,"parameterNumber":3,"parameterNumberName":"V-component_of_WINDS"},"data":[0,0,0,4.0578,4.0577,4.0572,4.0572,4.0545,4.0544,0,0,0,0,0,0,0,0,0,0,0,4.0567,4.0567,4.0578,4.0577,4.0572,4.0572,4.0545,4.0544,0,0,0,0,0,0,0,0,0,0,0,4.0568,4.0567,4.0566,4.0577,4.0572,4.0572,4.0545,4.0556,0,0,0,0,0,0,0,0,0,0,4.0565,4.0544,4.0567,4.0566,4.0577,4.0572,4.0572,4.0557,4.0555,4.0539,0,4.0522,0,4.0533,4.0541,4.0541,0,0,0,4.0585,4.0545,4.0555,4.0566,4.0577,4.0572,4.0576,4.0556,4.0554,4.0537,4.0522,4.0521,4.0532,4.0541,4.0541,4.0424,4.0423,0,0,4.0586,4.056,4.0556,4.0553,4.0553,4.0577,4.0576,4.0555,4.0537,4.0521,4.0521,4.0532,4.0541,4.054,4.0425,4.0424,0,0,0,4.0581,4.0559,4.057,4.0553,4.0554,4.0576,4.0576,4.0537,4.0543,4.0521,4.0531,4.054,4.054,4.0426,4.0424,4.0356,0,0,0,4.0582,4.0557,4.057,4.0553,4.0554,4.0546,4.0558,4.0545,4.0543,4.0532,4.054,4.0539,4.0427,4.0425,4.036,4.0327,0,0,0,4.0572,4.0556,4.0551,4.0552,4.0549,4.0547,4.0552,4.0545,4.0549,4.0541,4.0539,4.0428,4.0425,4.0363,4.0333,4.0291,0,0,0,4.0553,4.0487,4.055,4.048,4.0549,4.0504,4.0552,4.0519,4.0504,4.054,4.0427,4.0424,4.0365,4.0337,4.0295,4.0253,4.0232,0,0,4.0455,4.0474,4.0435,4.0491,4.043,4.0507,4.0435,4.0444,4.0465,4.0436,4.0434,4.0358,4.0334,4.0292,4.0123,4.0107,0,0,0,4.0395,4.0367,4.0357,4.0342,4.035,4.0354,4.0378,4.0382,4.0359,4.0445,4.0332,4.0318,4.0294,4.0275,4.0261,4.0244,4.0414,4.0414,4.0415,4.0218,4.0253,4.0192,4.0227,4.0212,4.024,4.0232,4.0242,4.0277,4.025,4.0242,4.0136,4.0112,4.0102,4.0084,4.0221,4.0221,4.0221,4.022,4.0079,4.0046,4.01,4.0061,4.0098,4.0065,4.009,4.0117,4.0093,4.0143,4.0125,4.0179,4.0083,4.0069,4.0216,4.0216,4.0217,4.0217,4.0218,3.9968,3.9959,3.9967,3.9953,3.9939,3.9976,3.9951,3.9985,4.0016,3.9997,3.9994,3.9996,4.0003,3.9993,3.9993,3.9993,3.9992,3.9992,3.9992,3.985,3.9862,3.9838,3.9844,3.9842,3.9842,3.9872,3.987,3.9877,3.9904,3.9904,3.9944,4.0067,4.0098,3.9986,3.9987,3.9988,3.9988,3.9989,3.9699,3.974,3.9703,3.9701,3.9713,3.9698,3.9742,3.9737,3.974,3.9728,3.9773,3.9858,3.9879,3.989,3.9916,3.9764,3.9764,3.9764,3.9764,3.9607,3.9622,3.9595,3.959,3.9589,3.9627,3.9586,3.9609,3.9639,3.9644,3.967,3.9708,3.9718,3.9733,3.9748,3.9773,3.9588,3.9588,3.9588,3.9518,3.9535,3.9493,3.9526,3.9539,3.9549,3.9512,3.9505,3.9547,3.9581,3.9649,3.9656,3.9717,3.9734,3.977,3.9792,3.9839,0,0]}]]